Weather History for Olean, NY

Change the Weather History Date:

Wednesday, August 1, 2012

  Actual Average (KBFD) Record (KBFD)
Temperature  
Mean Temperature 68 °F 65 °F  
Max Temperature 77 °F 77 °F 91 °F (1975)
Min Temperature 59 °F 53 °F 41 °F (1960)
Degree Days  
Heating Degree Days 0 0  
Month to date heating degree days 0  
Since 1 June heating degree days 209  
Since 1 July heating degree days 64  
Cooling Degree Days 3 2  
Month to date cooling degree days 2  
Year to date cooling degree days 126  
Since 1 June cooling degree days 116  
Growing Degree Days 18 (Base 50)    
Moisture  
Dew Point 61 °F    
Average Humidity 83    
Maximum Humidity 100    
Minimum Humidity 57    
Precipitation  
Precipitation 0.00 in 0.14 in 1.82 in (1965)
Month to date precipitation 0.14  
Year to date precipitation 25.98  
Sea Level Pressure  
Sea Level Pressure 29.93 in    
Wind  
Wind Speed 4 mph ()    
Max Wind Speed 10 mph    
Max Gust Speed -    
Visibility 7.5 miles    
Events Fog    
T = Trace of Precipitation, MM = Missing Value Source: Averaged Metar Reports

Daily Weather History Graph

Daily Weather History Graph

Search for Another Location

Airport:

Trip Planner

Search our weather history database for the weather conditions in past years. The results will help you decide how hot, cold, wet, or windy it might be!

Date:

Astronomy

Aug. 01, 2012 Rise Set
Actual Time 6:06 AM EDT 8:32 PM EDT
Civil Twilight 5:35 AM EDT 9:03 PM EDT
Nautical Twilight 4:55 AM EDT 9:42 PM EDT
Astronomical Twilight 4:11 AM EDT 10:26 PM EDT
Moon 7:59 PM EDT (8/1) 5:34 AM EDT (8/1)
Length of Visible Light 15h 28m
Length of Day
14h 25m
Full, 100% of the Moon is Illuminated
Aug 1
Full
Aug 1
Full
Aug 9
Last Quarter
Aug 17
New
Aug 24
First Quarter

Hourly Weather History & Observations

Time (EDT) Temp. Dew Point Humidity Pressure Visibility Wind Dir Wind Speed Gust Speed Precip Events Conditions
12:35 AM 60.8 °F 60.8 °F 100% 29.93 in 0.2 mi SSW 10.4 mph - N/A Fog Fog
1:15 AM 60.8 °F 60.8 °F 100% 29.94 in 1.5 mi SSW 8.1 mph - N/A   Overcast
1:35 AM 60.8 °F 60.8 °F 100% 29.93 in 7.0 mi SW 4.6 mph - N/A   Scattered Clouds
1:55 AM 60.8 °F 60.8 °F 100% 29.92 in 7.0 mi SSW 6.9 mph - N/A   Clear
2:15 AM 60.8 °F 60.8 °F 100% 29.92 in 7.0 mi SW 4.6 mph - N/A   Clear
2:35 AM 59.0 °F 59.0 °F 100% 29.92 in 5.0 mi Calm Calm - N/A   Clear
2:55 AM 60.8 °F 60.8 °F 100% 29.92 in 7.0 mi SW 4.6 mph - N/A   Scattered Clouds
3:15 AM 60.8 °F 60.8 °F 100% 29.92 in 7.0 mi Calm Calm - N/A   Mostly Cloudy
3:35 AM 60.8 °F 60.8 °F 100% 29.92 in 7.0 mi SW 3.5 mph - N/A   Overcast
3:55 AM 60.8 °F 60.8 °F 100% 29.92 in 7.0 mi SSW 8.1 mph - N/A   Mostly Cloudy
4:15 AM 60.8 °F 60.8 °F 100% 29.92 in 7.0 mi SSW 5.8 mph - N/A   Mostly Cloudy
4:35 AM 59.0 °F 59.0 °F 100% 29.91 in 7.0 mi SW 5.8 mph - N/A   Mostly Cloudy
4:55 AM 59.0 °F 59.0 °F 100% 29.92 in 5.0 mi SW 5.8 mph - N/A   Mostly Cloudy
5:15 AM 60.8 °F 60.8 °F 100% 29.92 in 3.0 mi Calm Calm - N/A   Overcast
5:35 AM 60.8 °F 60.8 °F 100% 29.92 in 0.8 mi Calm Calm - N/A   Overcast
5:55 AM 60.8 °F 60.8 °F 100% 29.92 in 0.8 mi Calm Calm - N/A   Overcast
6:15 AM 60.8 °F 60.8 °F 100% 29.93 in 0.5 mi Calm Calm - N/A Fog Fog
6:35 AM 60.8 °F 60.8 °F 100% 29.92 in 0.2 mi Calm Calm - N/A Fog Fog
6:55 AM 60.8 °F 60.8 °F 100% 29.92 in 0.2 mi Calm Calm - N/A Fog Fog
7:15 AM 60.8 °F 60.8 °F 100% 29.93 in 0.2 mi Calm Calm - N/A Fog Fog
7:35 AM 62.6 °F 62.6 °F 100% 29.93 in 0.2 mi Calm Calm - N/A Fog Fog
7:55 AM 62.6 °F 62.6 °F 100% 29.94 in 0.5 mi Calm Calm - N/A Fog Fog
8:15 AM 62.6 °F 62.6 °F 100% 29.94 in 1.5 mi Calm Calm - N/A   Overcast
8:35 AM 62.6 °F 62.6 °F 100% 29.94 in 2.0 mi Calm Calm - N/A   Overcast
8:55 AM 62.6 °F 62.6 °F 100% 29.95 in 3.0 mi West 3.5 mph - N/A   Overcast
9:15 AM 64.4 °F 62.6 °F 94% 29.95 in 4.0 mi Calm Calm - N/A   Overcast
9:35 AM 66.2 °F 64.4 °F 94% 29.94 in 7.0 mi Calm Calm - N/A   Overcast
9:55 AM 68.0 °F 62.6 °F 83% 29.94 in 10.0 mi Calm Calm - N/A   Mostly Cloudy
10:15 AM 68.0 °F 62.6 °F 83% 29.94 in 10.0 mi Calm Calm - N/A   Scattered Clouds
10:35 AM 68.0 °F 62.6 °F 83% 29.95 in 10.0 mi West 4.6 mph - N/A   Mostly Cloudy
10:55 AM 68.0 °F 62.6 °F 83% 29.94 in 10.0 mi Calm Calm - N/A   Overcast
11:15 AM 69.8 °F 62.6 °F 78% 29.94 in 10.0 mi WNW 8.1 mph - N/A   Mostly Cloudy
11:35 AM 71.6 °F 62.6 °F 73% 29.94 in 10.0 mi Calm Calm - N/A   Mostly Cloudy
11:55 AM 69.8 °F 62.6 °F 78% 29.94 in 10.0 mi NW 5.8 mph - N/A   Mostly Cloudy
12:15 PM 71.6 °F 62.6 °F 73% 29.94 in 10.0 mi NW 8.1 mph - N/A   Mostly Cloudy
12:35 PM 71.6 °F 60.8 °F 69% 29.94 in 10.0 mi West 3.5 mph - N/A   Mostly Cloudy
12:55 PM 71.6 °F 60.8 °F 69% 29.94 in 10.0 mi NW 4.6 mph - N/A   Mostly Cloudy
1:15 PM 71.6 °F 60.8 °F 69% 29.94 in 10.0 mi WNW 5.8 mph - N/A   Mostly Cloudy
1:35 PM 73.4 °F 60.8 °F 65% 29.94 in 10.0 mi NW 8.1 mph - N/A   Mostly Cloudy
1:55 PM 73.4 °F 60.8 °F 65% 29.94 in 10.0 mi NW 4.6 mph - N/A   Scattered Clouds
2:15 PM 73.4 °F 60.8 °F 65% 29.94 in 10.0 mi WNW 3.5 mph - N/A   Scattered Clouds
2:35 PM 75.2 °F 60.8 °F 61% 29.93 in 10.0 mi WNW 3.5 mph - N/A   Mostly Cloudy
2:55 PM 75.2 °F 62.6 °F 65% 29.93 in 10.0 mi NW 4.6 mph - N/A   Mostly Cloudy
3:15 PM 73.4 °F 62.6 °F 69% 29.93 in 10.0 mi Calm Calm - N/A   Scattered Clouds
3:35 PM 75.2 °F 60.8 °F 61% 29.93 in 10.0 mi WNW 4.6 mph - N/A   Scattered Clouds
3:55 PM 73.4 °F 60.8 °F 65% 29.92 in 10.0 mi WNW 5.8 mph - N/A   Scattered Clouds
4:15 PM 77.0 °F 60.8 °F 57% 29.92 in 10.0 mi WNW 5.8 mph - N/A   Scattered Clouds
4:35 PM 75.2 °F 60.8 °F 61% 29.92 in 10.0 mi NW 5.8 mph - N/A   Mostly Cloudy
4:55 PM 75.2 °F 60.8 °F 61% 29.92 in 10.0 mi WNW 3.5 mph - N/A   Scattered Clouds
5:15 PM 77.0 °F 60.8 °F 57% 29.92 in 10.0 mi NNW 8.1 mph - N/A   Mostly Cloudy
5:35 PM 73.4 °F 60.8 °F 65% 29.91 in 10.0 mi NNW 3.5 mph - N/A   Scattered Clouds
6:15 PM 75.2 °F 60.8 °F 61% 29.92 in 10.0 mi NW 5.8 mph - N/A   Scattered Clouds
6:35 PM 73.4 °F 60.8 °F 65% 29.92 in 10.0 mi NNW 3.5 mph - N/A   Scattered Clouds
6:55 PM 73.4 °F 60.8 °F 65% 29.92 in 10.0 mi NW 5.8 mph - N/A   Clear
7:15 PM 73.4 °F 60.8 °F 65% 29.92 in 10.0 mi WNW 3.5 mph - N/A   Clear
7:35 PM 71.6 °F 60.8 °F 69% 29.92 in 10.0 mi Calm Calm - N/A   Clear
7:55 PM 71.6 °F 60.8 °F 69% 29.92 in 10.0 mi NW 3.5 mph - N/A   Clear
8:15 PM 69.8 °F 60.8 °F 73% 29.92 in 10.0 mi WNW 3.5 mph - N/A   Clear
8:35 PM 68.0 °F 60.8 °F 78% 29.93 in 10.0 mi NW 3.5 mph - N/A   Clear
8:55 PM 68.0 °F 60.8 °F 78% 29.94 in 10.0 mi NW 3.5 mph - N/A   Clear
9:15 PM 68.0 °F 60.8 °F 78% 29.94 in 10.0 mi NW 3.5 mph - N/A   Clear
9:35 PM 66.2 °F 60.8 °F 83% 29.94 in 10.0 mi Calm Calm - N/A   Clear
9:55 PM 64.4 °F 60.8 °F 88% 29.95 in 10.0 mi NW 3.5 mph - N/A   Clear
10:35 PM 64.4 °F 59.0 °F 83% 29.96 in 10.0 mi Calm Calm - N/A   Clear
10:55 PM 64.4 °F 60.8 °F 88% 29.96 in 10.0 mi NW 3.5 mph - N/A   Clear
11:15 PM 64.4 °F 60.8 °F 88% 29.96 in 10.0 mi NW 3.5 mph - N/A   Clear
11:35 PM 62.6 °F 60.8 °F 94% 29.96 in 10.0 mi NW 3.5 mph - N/A   Clear
11:55 PM 62.6 °F 60.8 °F 94% 29.96 in 10.0 mi Calm Calm - N/A   Clear